Location: Bourg-d�Oueil
(42.8588°N, 0.4991°E)
Time: 17:33:44
(UTC+00:00)

Cosmos 1844 Rocket - Pass Details

Date: 16 June 2021
Orbit: 823 x 846 km, 71.0° (Epoch: 01 August)

Event Time Altitude Azimuth Distance (km) Brightness Sun altitude
Rises 22:19:10 0° 329° (NNW) 3,410 7.5 -19.9°
Reaches altitude 10° 22:21:42 10° 324° (NW) 2,473 6.3 -20.1°
Maximum altitude 22:27:05 46° 253° (WSW) 1,123 3.3 -20.5°
Enters shadow 22:29:22 30° 201° (SSW) 1,459 3.5 -20.6°
